RYR2ML EGKK-LPPR

Flight info

Callsign RYR2ML
Flight time N/A
Altitude 35000
Route NOVMA L620 SAM M195 LORKU DCT EBOMO DCT COQUE DCT KORUL/N0449F370 DCT ELTEP/N0397F230 T328 ASPOR
Aircraft B738/M-SDE2E3FGHIRWXY/LB1

Departure

Time 2026-04-15 16:43
Airport London Gatwick Airport (EGKK)

Arrival

Time N/A
Airport Francisco de Sá Carneiro Airport (LPPR)
Time Latitude Longitude Altitude Speed Heading
2026-04-15 16:10 51.15521 -0.16660 204 ft 0 kts 347°
2026-04-15 16:31 51.15516 -0.16658 214 ft 2 kts 347°
2026-04-15 16:32 51.15496 -0.16651 208 ft 3 kts 347°
2026-04-15 16:32 51.15481 -0.16645 214 ft 3 kts 344°
2026-04-15 16:32 51.15464 -0.16634 216 ft 3 kts 305°
2026-04-15 16:32 51.15459 -0.16608 211 ft 3 kts 262°
2026-04-15 16:33 51.15461 -0.16586 215 ft 1 kts 257°
2026-04-15 16:35 51.15459 -0.16601 210 ft 7 kts 257°
2026-04-15 16:35 51.15425 -0.16716 210 ft 13 kts 201°
2026-04-15 16:35 51.15355 -0.16698 204 ft 9 kts 165°
2026-04-15 16:36 51.15342 -0.16693 212 ft 0 kts 164°
2026-04-15 16:37 51.15328 -0.16686 209 ft 3 kts 164°
2026-04-15 16:37 51.15324 -0.16685 204 ft 0 kts 164°
2026-04-15 16:38 51.15309 -0.16678 210 ft 7 kts 164°
2026-04-15 16:38 51.15245 -0.16654 204 ft 6 kts 168°
2026-04-15 16:38 51.15239 -0.16652 208 ft 0 kts 168°
2026-04-15 16:39 51.15198 -0.16641 209 ft 11 kts 176°
2026-04-15 16:39 51.15138 -0.16700 204 ft 11 kts 246°
2026-04-15 16:40 51.15134 -0.16727 207 ft 0 kts 258°
2026-04-15 16:43 51.15090 -0.17035 212 ft 65 kts 257°
2026-04-15 16:43 51.14938 -0.18111 209 ft 132 kts 258°
2026-04-15 16:43 51.14724 -0.19724 524 ft 160 kts 254°
2026-04-15 16:43 51.14479 -0.21681 814 ft 198 kts 254°
2026-04-15 16:44 51.14168 -0.23840 1508 ft 197 kts 251°
2026-04-15 16:44 51.13884 -0.25849 2544 ft 188 kts 251°
2026-04-15 16:44 51.13574 -0.28009 2805 ft 212 kts 252°
2026-04-15 16:44 51.13241 -0.30373 3015 ft 223 kts 253°
2026-04-15 16:45 51.12906 -0.32803 2989 ft 226 kts 252°
2026-04-15 16:45 51.12574 -0.35218 2962 ft 223 kts 252°
2026-04-15 16:45 51.12228 -0.37703 2990 ft 237 kts 253°
2026-04-15 16:45 51.11865 -0.40303 2972 ft 244 kts 253°
2026-04-15 16:46 51.11477 -0.42946 3583 ft 244 kts 249°
2026-04-15 16:46 51.10829 -0.45399 4635 ft 239 kts 241°
2026-04-15 16:46 51.10059 -0.47792 5445 ft 245 kts 240°
2026-04-15 16:46 51.09272 -0.50205 6371 ft 246 kts 240°
2026-04-15 16:47 51.08489 -0.52646 7201 ft 250 kts 241°
2026-04-15 16:47 51.07701 -0.55140 8015 ft 254 kts 241°
2026-04-15 16:47 51.06825 -0.57596 8795 ft 258 kts 235°
2026-04-15 16:47 51.05805 -0.59967 9626 ft 261 kts 233°
2026-04-15 16:48 51.04744 -0.62342 10352 ft 268 kts 234°
2026-04-15 16:48 51.03616 -0.64858 10589 ft 292 kts 234°
2026-04-15 16:48 51.02390 -0.67606 10784 ft 315 kts 234°
2026-04-15 16:48 51.01077 -0.70567 11066 ft 334 kts 234°
2026-04-15 16:49 50.99739 -0.73598 11684 ft 341 kts 234°
2026-04-15 16:49 50.98371 -0.76707 12416 ft 345 kts 235°
2026-04-15 16:49 50.96985 -0.79860 13109 ft 350 kts 235°
2026-04-15 16:49 50.95587 -0.83045 13819 ft 354 kts 235°
2026-04-15 16:50 50.94167 -0.86275 14469 ft 358 kts 235°
2026-04-15 16:50 50.92740 -0.89522 15122 ft 361 kts 236°
2026-04-15 16:50 50.91295 -0.92807 15761 ft 364 kts 236°
2026-04-15 16:50 50.89856 -0.96071 16394 ft 368 kts 236°
2026-04-15 16:51 50.88368 -0.99447 17035 ft 371 kts 236°
2026-04-15 16:51 50.86900 -1.02771 17645 ft 375 kts 237°
2026-04-15 16:51 50.85396 -1.06172 18235 ft 378 kts 237°
2026-04-15 16:51 50.83881 -1.09594 18774 ft 382 kts 237°
2026-04-15 16:52 50.82348 -1.13051 19297 ft 385 kts 237°
2026-04-15 16:52 50.80806 -1.16523 19804 ft 388 kts 237°
2026-04-15 16:52 50.79243 -1.20039 20295 ft 392 kts 237°
2026-04-15 16:52 50.77672 -1.23569 20807 ft 394 kts 237°
2026-04-15 16:53 50.76088 -1.27121 21301 ft 397 kts 237°
2026-04-15 16:53 50.74488 -1.30705 21777 ft 401 kts 237°
2026-04-15 16:53 50.72873 -1.34319 22225 ft 404 kts 237°
2026-04-15 16:53 50.71244 -1.37957 22704 ft 407 kts 237°
2026-04-15 16:54 50.69606 -1.41611 23177 ft 409 kts 237°
2026-04-15 16:54 50.67956 -1.45288 23599 ft 413 kts 237°
2026-04-15 16:54 50.66292 -1.48990 23964 ft 416 kts 237°
2026-04-15 16:54 50.64611 -1.52723 24364 ft 417 kts 237°
2026-04-15 16:55 50.62929 -1.56455 24773 ft 418 kts 237°
2026-04-15 16:55 50.61239 -1.60200 25126 ft 421 kts 237°
2026-04-15 16:55 50.59539 -1.63961 25466 ft 423 kts 237°
2026-04-15 16:55 50.57829 -1.67741 25839 ft 425 kts 237°
2026-04-15 16:56 50.56112 -1.71528 26208 ft 426 kts 237°
2026-04-15 16:56 50.54363 -1.75303 26548 ft 429 kts 234°
2026-04-15 16:56 50.52319 -1.78770 26848 ft 435 kts 226°
2026-04-15 16:56 50.49948 -1.81778 27167 ft 441 kts 217°
2026-04-15 16:57 50.47396 -1.84368 27500 ft 443 kts 216°
2026-04-15 16:57 50.44780 -1.86955 27779 ft 446 kts 216°
2026-04-15 16:57 50.42150 -1.89557 28051 ft 448 kts 216°